Wind_Speed
33 33 33 32 31 31 30 28 28 27 27 26 25 25 25 25 24 24 24 23 24 24 23 23 22 22 22 22 21 20 20 19 19 19 19 19 19 20 20 20 20 20 20
34 34 34 34 33 33 32 31 30 29 29 28 27 27 27 27 27 26 25 25 24 24 25 25 24 23 23 23 23 23 22 22 22 22 21 21 21 21 21 21 21 22 22
35 35 35 36 35 34 33 33 32 32 31 30 29 30 29 29 29 29 28 27 26 26 26 26 26 25 25 25 25 25 25 25 25 25 24 24 23 23 23 23 23 23 23
36 36 36 37 38 37 36 34 34 33 33 32 32 32 32 31 31 30 31 31 30 29 29 29 28 28 27 28 28 27 27 27 28 28 27 27 26 25 25 25 25 25 25
38 38 38 38 39 40 39 37 36 35 34 34 34 34 34 33 32 32 32 32 33 32 32 31 30 30 29 29 30 30 29 29 30 30 30 29 29 28 28 28 27 27 27
38 39 40 40 40 39 39 38 38 37 37 36 36 36 36 35 34 34 34 34 34 35 35 34 33 33 32 32 32 32 32 31 31 32 31 31 31 30 30 30 30 30 29
40 40 40 41 41 40 39 39 39 39 38 38 38 37 37 36 36 36 36 36 36 37 37 37 36 36 35 34 34 34 34 33 33 33 33 33 32 32 32 32 33 32 32
42 42 41 42 41 41 41 41 40 40 39 39 39 39 38 38 37 37 37 38 38 38 39 39 38 38 38 38 37 37 36 36 35 35 35 35 34 34 34 34 35 35 34
42 43 42 43 43 41 40 40 41 41 41 41 41 40 40 39 39 38 38 38 39 40 41 42 41 40 41 41 40 39 38 37 36 36 37 37 37 36 36 36 36 36 37
43 44 43 44 44 43 42 42 41 42 42 42 42 42 41 41 41 40 40 40 40 41 42 43 42 42 42 42 42 41 40 40 39 39 39 39 39 39 39 39 38 38 38
41 43 43 45 45 45 45 44 43 44 44 45 44 44 43 43 43 43 42 42 43 43 43 43 43 43 44 44 44 43 43 42 42 42 41 41 42 42 42 42 42 41 41
42 43 44 45 45 45 46 46 45 45 45 46 46 45 45 45 45 45 45 45 44 44 44 44 44 44 45 45 45 45 45 44 44 44 44 44 45 45 45 45 45 45 45
44 44 45 46 46 46 46 47 47 47 47 47 47 48 48 48 48 47 47 47 47 46 46 46 45 45 45 46 46 47 47 47 47 47 47 47 47 47 47 47 48 48 48
44 45 46 47 48 48 49 49 49 49 49 49 49 49 50 50 50 49 48 48 48 48 48 48 47 47 47 48 49 49 49 48 48 48 48 48 48 49 49 50 50 50 50
44 46 46 47 47 48 49 50 50 50 50 50 50 49 50 50 51 51 50 50 49 49 49 49 49 49 49 49 49 49 50 50 50 50 50 50 50 50 50 51 51 51 52
44 45 46 46 46 46 47 48 49 50 51 51 51 50 50 50 50 51 51 50 50 49 50 49 49 49 49 49 49 50 51 51 52 52 52 52 52 52 53 53 53 52 52
43 44 45 45 45 45 46 47 48 48 49 50 50 50 51 51 50 49 50 50 50 50 51 51 50 50 50 50 50 50 51 51 52 53 53 54 54 53 53 53 53 53 53
42 43 43 43 44 44 45 46 46 46 48 49 49 49 50 51 50 50 50 50 50 50 51 51 50 50 51 52 52 52 52 52 53 53 53 54 55 55 54 54 54 55 55
42 44 44 43 43 44 44 44 45 45 47 48 48 48 48 49 49 49 49 49 49 49 49 50 50 50 51 52 52 52 52 53 53 54 54 54 55 56 56 56 56 56 57
43 43 44 44 44 44 44 45 45 46 46 47 47 47 47 47 47 47 47 47 48 48 49 49 50 50 50 51 52 52 52 53 54 54 55 55 56 56 57 57 57 58 59
42 43 43 43 43 43 44 44 44 44 45 46 46 46 47 48 48 47 47 47 47 48 48 49 51 51 51 52 52 53 54 55 55 56 56 56 57 57 57 58 59 60 61
41 42 42 42 41 42 42 42 43 43 44 45 45 45 46 47 48 47 47 46 46 47 48 50 51 52 52 53 53 55 56 56 56 57 58 57 57 57 57 57 58 60 60
39 40 40 40 40 40 40 41 42 43 43 43 43 44 45 46 45 46 47 47 47 48 49 49 50 52 52 53 54 56 56 57 57 57 57 56 55 55 56 56 57 58 59
38 38 38 39 39 40 41 41 42 42 42 42 42 43 44 44 44 46 46 47 48 48 49 49 51 52 53 54 55 56 57 57 57 56 57 56 55 55 55 55 57 57 56
37 37 37 38 38 39 40 40 40 40 40 41 41 41 41 41 43 45 46 46 47 48 49 50 50 51 52 53 54 55 54 54 53 53 54 54 54 54 55 56 56 55 54
36 36 36 36 36 37 38 39 39 39 39 40 41 41 41 41 42 43 45 45 46 46 48 48 49 50 50 51 51 51 51 51 51 50 50 51 52 53 53 53 54 54 53
Wind_Direction
241 241 242 243 244 245 246 248 249 249 251 252 252 251 250 249 249 249 250 251 253 254 252 254 257 259 262 265 269 272 273 275 278 281 283 286 288 289 290 291 291 292 292
243 244 244 243 244 245 246 247 248 250 251 253 253 252 251 250 249 250 251 252 254 256 253 253 255 258 262 264 267 270 272 273 276 279 281 283 284 287 288 288 288 289 289
245 245 246 245 245 246 246 248 249 250 251 252 253 253 251 251 250 251 251 252 254 256 253 253 255 257 260 264 266 269 271 272 274 277 279 281 282 284 286 286 286 286 287
246 246 247 247 246 246 247 248 249 250 252 252 252 252 252 252 252 253 252 252 254 255 253 253 255 257 259 263 265 268 271 273 274 275 277 279 280 282 284 285 285 285 285
248 248 248 248 248 247 247 249 250 251 252 253 252 252 251 252 253 254 255 254 254 254 252 252 254 256 260 263 265 267 270 273 275 275 276 277 278 279 281 282 283 284 283
249 249 249 249 249 248 248 249 250 252 252 252 253 252 251 252 254 255 256 256 255 254 253 252 253 256 259 263 264 266 269 271 275 275 275 276 276 277 278 280 281 282 282
250 250 251 250 250 250 250 251 252 253 253 253 252 252 253 253 255 256 257 257 256 254 253 253 255 257 259 262 263 264 267 269 272 274 274 275 275 276 277 278 279 280 281
251 251 252 251 250 251 251 253 254 254 253 253 252 252 252 254 256 256 257 258 257 255 253 254 257 259 260 261 262 265 266 267 270 272 273 274 275 275 277 278 278 278 279
253 252 253 251 249 250 252 254 255 255 254 253 253 253 253 254 255 256 257 258 257 256 255 255 257 259 260 262 263 266 267 267 268 270 272 273 274 274 276 277 278 278 278
253 253 253 252 250 251 252 254 255 256 255 254 254 254 254 255 256 257 257 258 258 258 257 257 258 259 261 263 264 266 267 267 268 270 271 272 273 274 275 276 278 278 279
255 254 254 253 252 252 252 253 254 255 256 255 255 255 255 256 256 257 257 259 259 259 258 258 259 259 261 263 265 266 267 267 268 270 270 272 273 273 275 276 277 277 278
256 255 255 254 253 253 253 253 254 255 257 256 255 255 256 256 257 257 258 259 260 260 259 259 261 261 262 263 265 266 267 268 268 270 271 272 273 273 275 277 277 277 277
256 256 254 255 254 254 253 253 254 255 256 256 255 256 257 257 258 258 258 258 259 260 259 260 261 262 263 264 265 266 267 268 269 270 271 272 272 273 274 277 278 277 277
255 254 254 255 255 255 254 254 254 255 255 255 255 255 256 257 257 257 258 258 259 260 259 259 261 261 263 264 265 267 268 269 269 271 271 272 273 273 274 276 277 277 278
256 255 254 255 256 256 256 254 254 255 255 255 254 255 255 256 256 257 258 259 260 260 258 258 260 261 263 265 266 267 268 269 270 271 272 273 274 274 275 276 277 277 278
256 255 255 256 256 257 256 256 256 256 256 255 254 254 255 256 257 258 259 259 260 261 260 259 261 262 263 265 266 267 268 269 271 273 273 273 274 275 275 275 276 277 277
257 255 255 256 257 257 256 256 257 257 256 255 255 255 255 256 257 258 259 260 260 260 260 260 262 263 264 265 267 268 269 270 271 273 274 274 275 275 276 276 277 276 277
258 255 255 256 257 257 257 257 257 257 255 255 255 255 255 255 256 257 259 260 261 261 261 262 262 263 264 265 267 268 269 271 272 273 275 275 275 276 276 277 277 278 278
259 257 256 257 258 259 258 257 256 255 255 255 255 256 256 256 257 258 259 260 261 262 262 263 262 263 264 266 267 269 271 272 273 274 276 276 276 276 276 276 277 278 279
260 259 258 259 259 259 257 256 255 255 255 255 256 257 256 256 257 259 259 260 261 263 263 263 264 263 265 267 268 270 271 272 274 275 276 277 277 277 276 276 277 278 280
260 260 259 260 260 259 258 257 255 255 255 255 256 257 257 256 257 259 261 261 262 263 264 264 264 264 266 267 269 270 271 274 275 276 276 277 277 277 277 278 279 279 280
259 259 260 260 260 259 258 256 255 256 257 257 257 258 258 257 256 257 260 261 262 264 265 265 265 266 267 269 270 271 273 275 275 276 276 276 277 277 277 278 280 280 281
260 260 260 259 259 258 257 257 256 255 257 257 257 258 258 257 257 259 260 261 263 265 266 267 267 268 268 270 272 272 274 275 275 275 275 275 276 277 278 279 281 282 282
262 262 260 259 259 259 258 257 257 257 257 257 258 259 258 256 258 259 261 262 263 264 266 267 269 269 270 271 273 273 274 276 276 275 275 276 276 277 279 281 282 282 282
260 261 261 259 258 258 257 256 257 256 257 258 259 258 257 258 259 260 261 263 265 266 267 269 271 272 272 273 275 275 274 276 277 276 277 278 278 278 280 282 282 282 282
260 261 261 260 258 257 257 259 257 256 256 257 258 259 258 260 259 259 261 263 265 267 268 270 272 273 274 275 276 277 276 276 278 278 279 280 281 281 282 282 282 281 281
Height
5808 5810 5812 5814 5816 5817 5819 5820 5821 5822 5823 5824 5824 5825 5826 5826 5827 5829 5830 5831 5832 5833 5834 5835 5835 5836 5837 5837 5838 5838 5837 5837 5836 5836 5835 5834 5833 5832 5831 5830 5829 5828 5827
5802 5804 5806 5807 5809 5811 5812 5814 5815 5816 5817 5818 5819 5819 5820 5821 5822 5823 5824 5825 5826 5827 5828 5829 5830 5831 5832 5832 5833 5832 5832 5832 5832 5831 5830 5830 5829 5828 5827 5826 5824 5823 5822
5794 5796 5798 5800 5802 5804 5805 5807 5808 5810 5811 5812 5812 5813 5814 5815 5816 5817 5819 5820 5821 5821 5822 5823 5824 5825 5826 5826 5827 5827 5827 5827 5826 5826 5825 5824 5824 5823 5822 5820 5819 5818 5817
5787 5788 5791 5793 5794 5796 5798 5799 5801 5803 5804 5805 5806 5807 5808 5809 5810 5811 5812 5813 5814 5815 5816 5816 5818 5819 5820 5820 5820 5821 5821 5820 5820 5820 5820 5819 5818 5817 5816 5815 5814 5813 5812
5779 5781 5782 5784 5786 5788 5790 5792 5793 5795 5796 5797 5798 5800 5801 5802 5803 5804 5805 5806 5807 5808 5809 5809 5811 5812 5813 5813 5814 5814 5814 5814 5814 5814 5813 5812 5812 5811 5810 5809 5808 5807 5806
5770 5772 5774 5776 5778 5779 5781 5783 5785 5787 5788 5789 5791 5792 5793 5795 5796 5797 5798 5798 5799 5800 5801 5802 5803 5805 5805 5806 5806 5807 5807 5807 5807 5807 5806 5805 5805 5804 5803 5802 5801 5800 5799
5761 5763 5765 5767 5769 5771 5773 5774 5776 5778 5779 5781 5783 5784 5785 5787 5788 5789 5790 5791 5791 5792 5793 5794 5795 5796 5797 5798 5799 5799 5799 5799 5799 5799 5798 5798 5797 5796 5796 5795 5794 5793 5792
5751 5753 5756 5758 5759 5761 5763 5765 5767 5769 5771 5772 5774 5775 5777 5779 5779 5780 5781 5782 5783 5784 5785 5785 5786 5787 5788 5789 5790 5791 5791 5791 5791 5790 5790 5790 5789 5789 5788 5787 5786 5785 5784
5741 5743 5746 5747 5750 5752 5754 5756 5758 5760 5762 5763 5765 5767 5768 5770 5771 5772 5772 5773 5774 5775 5776 5776 5777 5778 5779 5780 5781 5781 5782 5782 5782 5781 5781 5781 5781 5780 5779 5778 5777 5776 5775
5732 5733 5735 5737 5740 5742 5745 5746 5748 5750 5752 5754 5756 5757 5759 5760 5761 5762 5763 5764 5764 5765 5766 5767 5768 5769 5770 5770 5771 5772 5772 5773 5773 5772 5772 5772 5771 5771 5770 5769 5768 5767 5766
5722 5724 5725 5727 5730 5732 5734 5737 5738 5740 5742 5744 5745 5747 5748 5750 5751 5752 5753 5754 5754 5755 5756 5757 5758 5759 5760 5760 5761 5761 5762 5762 5763 5762 5762 5762 5761 5761 5760 5759 5758 5757 5756
5711 5713 5715 5717 5719 5722 5724 5726 5727 5729 5731 5732 5734 5736 5737 5739 5740 5741 5742 5743 5744 5745 5746 5746 5747 5748 5749 5750 5750 5751 5751 5752 5752 5751 5751 5751 5750 5750 5749 5748 5747 5746 5745
5700 5702 5704 5706 5709 5710 5712 5714 5716 5718 5719 5720 5722 5724 5725 5727 5728 5729 5730 5731 5733 5734 5735 5736 5737 5737 5738 5738 5739 5739 5740 5740 5740 5740 5740 5739 5739 5738 5738 5737 5735 5734 5733
5689 5690 5692 5694 5696 5698 5700 5701 5703 5705 5707 5708 5709 5711 5712 5714 5716 5717 5718 5719 5721 5722 5723 5725 5725 5726 5727 5727 5727 5728 5728 5728 5728 5728 5728 5727 5727 5726 5725 5724 5723 5721 5720
5677 5678 5680 5682 5683 5685 5687 5688 5690 5692 5693 5695 5696 5698 5700 5702 5703 5705 5706 5707 5708 5709 5712 5712 5713 5714 5715 5715 5715 5715 5716 5716 5715 5715 5715 5714 5714 5713 5712 5711 5710 5708 5706
5665 5666 5668 5669 5671 5672 5674 5676 5677 5679 5680 5682 5683 5685 5687 5689 5691 5692 5693 5694 5696 5697 5699 5700 5701 5702 5702 5703 5703 5703 5703 5703 5703 5702 5702 5701 5700 5700 5698 5697 5696 5694 5692
5653 5655 5656 5658 5659 5660 5662 5663 5665 5666 5667 5669 5670 5672 5674 5676 5678 5680 5681 5683 5684 5685 5686 5688 5689 5689 5690 5690 5690 5690 5690 5690 5690 5689 5688 5687 5686 5685 5684 5683 5681 5680 5678
5642 5644 5645 5646 5647 5648 5650 5651 5652 5653 5655 5657 5658 5660 5662 5664 5666 5667 5669 5670 5672 5673 5674 5675 5676 5677 5677 5678 5678 5678 5677 5677 5677 5676 5675 5673 5671 5670 5669 5668 5666 5665 5663
5632 5633 5634 5635 5636 5637 5637 5639 5640 5641 5643 5644 5646 5648 5649 5652 5654 5656 5657 5659 5660 5660 5661 5662 5663 5664 5665 5665 5665 5665 5664 5664 5663 5662 5660 5659 5657 5655 5654 5653 5651 5650 5648
5621 5622 5623 5623 5624 5625 5625 5626 5628 5629 5631 5632 5634 5636 5637 5640 5642 5644 5645 5646 5648 5648 5649 5649 5651 5651 5652 5652 5652 5651 5651 5650 5649 5648 5646 5644 5642 5641 5639 5638 5637 5635 5633
5610 5610 5611 5612 5612 5613 5614 5614 5615 5617 5618 5620 5622 5624 5626 5628 5630 5632 5633 5635 5636 5636 5637 5637 5638 5638 5639 5639 5639 5638 5637 5636 5635 5633 5631 5629 5628 5626 5624 5623 5620 5618 5616
5599 5599 5600 5600 5601 5601 5602 5603 5604 5605 5607 5608 5610 5612 5614 5616 5617 5619 5621 5622 5623 5624 5624 5624 5625 5625 5626 5625 5625 5624 5623 5622 5621 5620 5617 5615 5613 5611 5609 5607 5605 5602 5599
5588 5588 5589 5589 5590 5591 5591 5592 5593 5594 5595 5597 5598 5600 5602 5603 5605 5607 5609 5610 5611 5611 5612 5612 5612 5612 5612 5611 5610 5610 5608 5606 5605 5603 5601 5601 5598 5596 5594 5591 5588 5585 5581
5577 5578 5578 5579 5579 5580 5581 5581 5582 5583 5584 5586 5587 5588 5590 5592 5594 5596 5597 5598 5599 5599 5600 5599 5599 5599 5598 5597 5596 5595 5593 5591 5590 5588 5586 5585 5583 5581 5578 5575 5572 5569 5565
5567 5568 5568 5569 5569 5570 5570 5571 5572 5573 5574 5575 5576 5578 5579 5581 5583 5584 5585 5586 5587 5587 5587 5586 5585 5585 5584 5583 5581 5579 5578 5577 5576 5574 5571 5569 5568 5566 5564 5560 5557 5553 5550
5557 5557 5558 5558 5559 5560 5560 5561 5562 5563 5564 5565 5566 5567 5568 5570 5571 5571 5572 5573 5574 5574 5574 5573 5572 5571 5570 5569 5567 5566 5564 5563 5561 5560 5558 5555 5553 5550 5549 5547 5542 5538 5535